TimeEDT,TemperatureF,Dew PointF,Humidity,Sea Level PressureIn,VisibilityMPH,Wind Direction,Wind SpeedMPH,Gust SpeedMPH,PrecipitationIn,Events,Conditions,WindDirDegrees,DateUTC
12:53 AM,57.9,55.0,90,30.20,8.0,ENE,3.5,-,N/A,,Clear,70,2013-09-28 04:53:00
1:53 AM,57.9,55.0,90,30.20,9.0,ENE,4.6,-,N/A,,Clear,70,2013-09-28 05:53:00
2:53 AM,57.0,55.0,93,30.19,9.0,East,3.5,-,N/A,,Clear,80,2013-09-28 06:53:00
3:53 AM,57.0,55.9,96,30.18,9.0,ENE,4.6,-,N/A,,Clear,70,2013-09-28 07:53:00
4:10 AM,57.2,55.4,94,30.19,7.0,ENE,4.6,-,N/A,,Partly Cloudy,70,2013-09-28 08:10:00
4:53 AM,55.0,54.0,96,30.19,9.0,Calm,Calm,-,N/A,,Partly Cloudy,0,2013-09-28 08:53:00
5:53 AM,55.9,55.0,97,30.19,6.0,NNE,3.5,-,N/A,,Scattered Clouds,30,2013-09-28 09:53:00
6:37 AM,55.4,53.6,94,30.20,2.0,Calm,Calm,-,N/A,,Mostly Cloudy,0,2013-09-28 10:37:00
6:44 AM,53.6,53.6,100,30.20,0.5,Calm,Calm,-,N/A,Fog,Fog,0,2013-09-28 10:44:00
6:53 AM,55.0,54.0,96,30.20,0.5,Calm,Calm,-,N/A,Fog,Fog,0,2013-09-28 10:53:00
7:05 AM,55.4,53.6,94,30.20,0.2,Calm,Calm,-,N/A,Fog,Fog,0,2013-09-28 11:05:00
7:53 AM,54.0,54.0,100,30.21,0.2,Calm,Calm,-,N/A,Fog,Fog,0,2013-09-28 11:53:00
8:16 AM,53.6,53.6,100,30.21,0.5,Calm,Calm,-,N/A,Fog,Fog,0,2013-09-28 12:16:00
8:30 AM,55.4,55.4,100,30.21,0.0,Calm,Calm,-,N/A,Fog,Fog,0,2013-09-28 12:30:00
8:33 AM,55.4,55.4,100,30.21,0.0,Calm,Calm,-,N/A,Fog,Fog,0,2013-09-28 12:33:00
8:53 AM,57.0,57.0,100,30.21,0.0,Calm,Calm,-,N/A,Fog,Fog,0,2013-09-28 12:53:00
9:19 AM,57.2,57.2,100,30.21,0.2,Calm,Calm,-,N/A,Fog,Fog,0,2013-09-28 13:19:00
9:27 AM,59.0,59.0,100,30.21,1.2,Calm,Calm,-,N/A,,Scattered Clouds,0,2013-09-28 13:27:00
9:38 AM,60.8,59.0,94,30.21,2.5,Calm,Calm,-,N/A,,Scattered Clouds,0,2013-09-28 13:38:00
9:49 AM,60.8,60.8,100,30.21,4.0,Calm,Calm,-,N/A,,Scattered Clouds,0,2013-09-28 13:49:00
9:53 AM,61.0,60.1,97,30.21,4.0,SE,3.5,-,N/A,,Scattered Clouds,130,2013-09-28 13:53:00
10:53 AM,66.9,59.0,76,30.21,10.0,South,5.8,-,N/A,,Clear,170,2013-09-28 14:53:00
11:53 AM,70.0,55.9,61,30.20,10.0,SSE,4.6,-,N/A,,Clear,150,2013-09-28 15:53:00
12:53 PM,73.0,55.0,53,30.18,10.0,SSE,9.2,-,N/A,,Partly Cloudy,150,2013-09-28 16:53:00
1:53 PM,73.9,52.0,46,30.15,10.0,SE,8.1,18.4,N/A,,Scattered Clouds,140,2013-09-28 17:53:00
2:53 PM,73.9,52.0,46,30.13,10.0,SE,11.5,-,N/A,,Mostly Cloudy,140,2013-09-28 18:53:00
3:53 PM,73.9,52.0,46,30.11,10.0,SSE,9.2,-,N/A,,Mostly Cloudy,160,2013-09-28 19:53:00
4:53 PM,73.0,52.0,48,30.09,10.0,SE,11.5,-,N/A,,Mostly Cloudy,140,2013-09-28 20:53:00
5:53 PM,73.0,52.0,48,30.09,10.0,SE,6.9,-,N/A,,Scattered Clouds,130,2013-09-28 21:53:00
6:53 PM,70.0,53.1,55,30.08,10.0,ESE,6.9,-,N/A,,Mostly Cloudy,110,2013-09-28 22:53:00
7:53 PM,68.0,54.0,61,30.07,10.0,East,6.9,-,N/A,,Mostly Cloudy,100,2013-09-28 23:53:00
8:53 PM,66.0,54.0,65,30.07,10.0,East,5.8,-,N/A,,Scattered Clouds,100,2013-09-29 00:53:00
9:53 PM,64.9,55.9,73,30.06,10.0,ESE,4.6,-,N/A,,Partly Cloudy,110,2013-09-29 01:53:00
10:53 PM,64.9,57.9,78,30.05,10.0,ESE,5.8,-,N/A,,Partly Cloudy,120,2013-09-29 02:53:00
11:53 PM,64.9,55.9,73,30.03,10.0,SE,9.2,-,N/A,,Clear,140,2013-09-29 03:53:00